C/2019 D1 ( Flewelling )

Japanese version
Home page
Updated on June 8, 2019

---------------------------------------------------------------------

* Profile

Discovery Date February 26, 2019
Magnitude 16.7 mag
Discoverer Heather Flewelling (Asteroid Terrestrial-Impact Last Alert System (ATLAS) search program)

* Pictures

* Orbital Elements

Epoch 2019 Apr. 27.0 TT = JDT 2458600.5
T 2019 May 11.84078 TT                                  MPCW
q   1.5775554            (2000.0)            P               Q
z  +0.0072143      Peri.   70.47639     +0.40559626     +0.80114480
 +/-0.0000337      Node   231.71791     -0.89448946     +0.44696027
e   0.9886190      Incl.   34.09840     +0.18809647     +0.39798684
From 265 observations 2019 Feb. 26-June 2, mean residual 0".5.

* Finding Charts

* Magnitudes Graph

        m1 = 12.0 + 5 log d + 10.0 log r

---------------------------------------------------------------------

The orbital elements are published on M.P.E.C. 2019-L24.
The charts are made with StellaNavigator Ver.10 (AstroArts).
The magnitudes graphs are made with Comet for Windows.

---------------------------------------------------------------------

Copyright(C) Seiichi Yoshida (comet@aerith.net). All rights reserved.